Location: ????????
(55.6189°N, 38.3031°E)
Time: 22:08:54
(UTC+00:00)

Cosmos 1605 Rocket - Pass Details

Date: 15 November 2019
Orbit: 944 x 1006 km, 82.9° (Epoch: 12 December)

Event Time Altitude Azimuth Distance (km) Brightness Sun altitude
Rises 02:42:57 0° 207° (SSW) 3,658 6.8 -19.0°
Reaches altitude 10° 02:45:32 10° 213° (SSW) 2,706 6.1 -18.7°
Maximum altitude 02:51:33 52° 289° (WNW) 1,181 4.0 -17.8°
Drops below altitude 10° 02:57:33 10° 6° (N) 2,688 6.3 -17.0°
Sets 03:00:07 0° 11° (N) 3,633 7.0 -16.6°
